Location: Unspecified
(0.0000°N, 0.0000°E)
Time: 12:40:13
(UTC+00:00)

STARLINK-36491 - Pass Details

Date: 17 February 2026
Orbit: 482 x 484 km, 43.0° (Epoch: 8 March)

Event Time Altitude Azimuth Distance (km) Brightness Sun altitude
Rises 18:44:12 0° 212° (SSW) 2,534 ? -7.4°
Reaches altitude 10° 18:46:30 10° 203° (SSW) 1,654 ? -8.0°
Maximum altitude 18:50:00 36° 135° (SE) 769 ? -8.8°
Enters shadow 18:53:04 13° 69° (ENE) 1,495 ? -9.6°
